Lapse_Rate
6.1 6.2 6.3 6.2 6.2 6.3 6.4 6.5 6.5 6.4 6.5 6.4 6.4 6.3 6.2 6.2 6.2 6.2 6.2 6.4 6.2 6.2 6.1 6.1 6.0 5.9 5.9 5.9 5.7 5.5 5.0 5.1 5.5 5.7 5.7 5.5 5.5 5.7 5.9 6.1 6.5 6.6 6.6 7.0 7.2
6.1 6.1 6.1 6.2 6.2 6.1 6.1 6.2 6.2 6.0 6.1 6.1 6.1 6.1 6.1 5.9 5.9 6.0 5.9 5.9 5.9 6.0 6.1 5.9 5.6 5.6 5.6 5.4 5.3 5.1 5.1 4.8 5.0 5.2 5.2 5.5 5.4 5.7 5.7 5.7 6.0 6.5 6.5 6.6 6.9
6.2 6.2 6.1 5.9 6.0 6.1 6.1 6.1 5.9 5.9 6.0 6.0 5.9 5.8 5.7 5.7 5.7 5.7 5.5 5.4 5.4 5.3 5.5 5.4 5.3 5.2 5.1 5.0 4.9 5.0 4.7 4.4 4.2 4.5 4.7 5.1 5.2 5.0 5.1 5.4 5.5 5.8 6.3 6.4 6.5
6.4 6.3 6.3 6.2 6.1 5.9 5.9 5.9 5.9 5.8 5.7 5.7 5.7 5.7 5.6 5.5 4.9 4.9 4.9 5.0 5.1 5.0 5.0 5.1 5.0 4.9 4.7 4.6 4.7 4.4 4.2 3.7 3.5 3.7 4.4 4.7 4.8 4.7 4.5 4.3 4.7 5.0 5.5 6.2 6.3
6.4 6.5 6.5 6.3 6.2 6.1 5.9 5.8 5.8 5.8 5.7 5.5 5.4 5.3 5.2 5.0 5.0 4.6 4.4 4.4 4.4 4.4 4.4 4.4 4.4 4.4 4.5 4.5 4.3 4.1 4.0 3.9 3.8 4.2 3.9 3.8 4.2 4.4 4.5 4.7 4.5 4.5 4.8 5.1 5.8
6.4 6.5 6.4 6.3 6.2 6.2 6.1 6.1 6.0 5.9 5.8 5.6 5.4 5.3 5.2 4.9 4.6 4.3 4.0 3.9 3.8 3.8 3.8 4.0 4.1 4.1 4.2 4.0 3.8 3.7 3.8 4.0 4.2 3.9 3.9 4.1 4.0 4.4 4.6 4.6 4.7 4.2 4.2 4.6 5.0
6.4 6.5 6.5 6.5 6.3 6.0 6.1 6.3 6.2 6.1 6.0 5.7 5.5 5.2 4.9 4.7 4.5 4.3 4.2 4.2 4.4 4.3 4.2 4.1 3.9 3.8 3.7 3.8 3.5 3.7 3.9 4.0 4.0 3.8 3.9 3.7 4.0 4.0 4.2 4.2 4.0 4.1 4.0 4.2 4.8
6.3 6.3 6.5 6.4 6.3 6.2 6.2 6.2 6.3 6.2 6.0 5.6 5.1 4.7 4.7 4.3 4.1 4.1 4.2 4.4 4.5 4.4 4.1 3.9 3.8 3.8 3.7 3.5 3.5 3.9 3.8 3.6 3.8 3.9 3.9 3.5 3.5 3.2 3.8 3.9 4.2 4.3 4.3 4.5 4.6
6.2 6.2 6.2 6.1 5.9 5.8 5.9 6.0 5.8 5.8 5.7 5.4 5.1 4.9 4.9 4.4 4.6 4.9 5.0 4.6 4.5 4.4 4.1 4.0 4.0 4.1 4.0 3.9 4.3 4.2 4.1 4.1 4.2 4.3 4.1 3.7 3.3 3.6 4.1 4.2 4.2 4.3 4.6 4.8 5.1
6.0 6.0 6.0 5.9 5.6 5.3 5.2 5.2 5.0 5.0 5.0 4.9 4.8 4.9 4.5 4.6 4.9 4.7 4.9 4.8 4.7 4.6 4.5 4.4 4.4 4.3 4.4 4.3 4.6 4.4 4.5 4.5 4.5 4.7 4.8 4.6 4.9 4.9 4.4 4.8 4.7 4.8 5.0 5.3 5.6
6.1 5.9 5.9 5.8 5.5 5.4 5.1 4.8 4.9 4.8 4.6 4.5 4.4 4.6 4.2 4.3 4.6 4.7 4.5 4.6 4.7 4.7 4.7 4.8 4.8 4.7 4.7 4.7 4.7 4.5 4.4 4.3 4.6 4.8 4.7 5.1 5.7 6.9 6.1 6.0 6.1 6.2 6.3 6.0 5.9
6.1 5.9 5.6 5.7 5.5 5.3 5.3 5.0 4.8 4.8 4.7 4.7 4.5 4.3 4.2 4.2 4.4 4.5 4.6 4.7 4.6 4.7 4.7 5.0 5.2 5.3 5.0 4.9 4.7 4.5 4.3 4.8 5.0 5.1 4.9 5.2 6.4 6.9 6.7 7.4 7.5 7.4 7.2 6.7 6.6
6.2 5.9 5.7 5.5 5.3 5.1 5.2 5.3 5.1 4.8 4.9 4.9 5.0 5.0 4.9 4.9 4.9 4.9 5.0 4.9 5.2 5.3 5.2 5.1 5.4 5.3 5.2 5.0 4.9 4.7 5.0 5.1 5.0 4.9 4.8 4.8 5.3 6.4 6.2 7.3 7.8 7.5 7.6 7.3 7.2
6.3 6.0 5.8 5.7 5.6 5.5 5.4 5.4 5.1 4.8 5.0 5.0 5.0 5.2 5.1 5.0 4.7 5.0 5.1 5.2 5.5 5.5 5.5 5.4 5.3 5.1 5.0 5.2 5.2 5.2 5.4 5.2 5.0 4.7 5.2 4.6 5.3 5.6 6.1 6.8 7.5 7.7 7.2 7.2 7.0
6.4 6.3 5.9 5.9 5.8 5.7 5.8 5.8 5.6 5.2 5.5 5.2 5.4 5.6 5.4 5.2 5.2 5.0 5.0 5.0 5.3 5.3 5.1 5.1 5.1 5.0 5.2 5.4 5.5 5.3 5.4 5.0 5.1 4.9 4.8 5.6 5.1 5.6 5.8 6.3 7.0 7.4 6.9 6.8 6.8
6.6 6.6 6.2 5.8 5.8 5.9 5.9 5.9 5.8 5.6 5.5 5.4 5.4 5.5 5.6 5.6 5.6 5.3 5.1 5.1 5.3 5.3 5.1 4.9 5.1 5.4 5.6 5.6 5.4 5.4 5.3 5.3 5.3 5.0 5.3 5.5 5.4 5.5 6.2 6.2 6.7 6.9 6.8 6.7 6.7
6.6 6.6 6.5 6.3 6.1 6.1 6.3 6.4 6.1 6.0 5.8 5.6 5.6 5.5 5.4 5.4 5.4 5.3 5.5 5.4 5.3 5.4 4.9 5.8 5.5 5.6 5.5 5.4 5.4 5.4 5.1 5.6 5.7 5.9 6.4 5.4 5.0 5.7 5.8 6.0 6.1 6.2 6.4 6.2 6.1
6.5 6.6 6.6 6.4 6.3 6.3 6.5 6.5 6.2 5.9 5.8 5.7 5.6 5.4 5.3 5.2 5.3 5.3 5.1 4.9 4.8 4.6 4.6 4.3 6.0 5.8 5.6 5.1 5.0 5.3 4.7 5.4 5.3 6.3 6.6 5.5 5.3 5.9 6.0 6.0 6.2 6.1 6.6 6.9 6.5
6.6 6.6 6.6 6.5 6.4 6.4 6.5 6.7 6.2 5.9 5.6 5.5 5.3 5.1 5.1 4.7 4.7 5.1 4.9 5.0 4.8 4.6 4.4 4.3 4.3 6.0 4.9 5.5 5.1 4.8 4.9 5.1 4.9 5.1 4.8 5.0 5.0 4.8 5.8 5.8 6.1 6.1 6.2 6.7 6.8
6.7 6.7 6.7 6.5 6.4 6.5 6.6 6.5 6.1 5.7 5.4 5.2 4.9 4.9 4.4 4.5 4.5 4.5 5.0 4.8 4.6 4.6 4.4 4.3 3.8 5.1 5.6 5.5 5.4 5.4 5.2 5.2 5.1 5.3 5.8 6.6 6.3 6.3 5.9 5.5 5.4 5.6 6.0 6.1 6.3
6.7 6.7 6.7 6.7 6.7 6.7 6.6 6.3 5.9 5.5 5.3 5.1 4.9 4.6 4.5 4.1 4.6 4.5 5.1 4.9 4.6 4.4 4.3 4.2 4.1 5.0 5.1 5.5 5.4 5.2 5.1 4.9 5.0 5.1 5.9 5.8 6.2 6.2 5.9 5.5 4.9 5.1 5.4 6.0 6.1
6.7 6.8 6.7 6.8 6.8 6.9 6.6 6.1 5.9 5.5 5.3 5.0 4.9 4.8 4.4 4.3 4.5 4.5 5.0 4.9 4.5 4.5 4.4 4.3 4.3 4.5 5.3 5.9 5.5 5.5 5.2 5.1 5.0 5.8 5.0 5.2 4.5 6.0 5.7 5.8 5.7 5.3 5.4 5.6 5.7
6.9 6.9 7.0 7.0 7.0 6.8 6.4 6.1 5.8 5.6 5.3 5.1 4.7 4.5 4.8 4.4 4.0 4.5 4.5 5.0 4.7 4.7 4.5 4.2 4.3 4.6 5.6 6.0 5.9 5.8 5.7 5.2 5.0 4.9 4.9 5.4 5.8 6.4 6.3 5.7 5.7 5.5 5.6 5.6 5.6
6.9 6.8 6.9 6.9 6.8 6.7 6.5 5.9 5.5 5.4 5.2 5.2 4.8 4.7 4.4 4.5 4.7 4.8 5.1 5.1 5.1 5.1 5.2 4.2 4.4 4.7 5.1 6.0 5.6 5.3 5.6 5.4 5.4 5.2 5.1 5.3 5.1 5.8 5.5 5.1 5.2 5.7 5.8 5.4 4.9
6.6 6.7 6.6 6.4 6.4 6.3 6.3 6.2 5.9 5.6 5.2 5.0 5.0 4.5 4.1 4.2 4.9 5.6 5.7 4.8 6.1 5.7 5.1 4.7 4.5 4.5 4.9 5.1 5.0 5.2 5.4 5.7 5.4 5.3 5.1 5.2 5.2 5.0 4.5 4.1 4.6 4.8 5.1 5.2 5.5
6.5 6.5 6.6 6.5 6.3 6.2 5.9 5.7 5.5 5.6 5.5 5.2 5.1 5.2 5.0 4.9 4.6 5.2 5.0 5.1 5.2 5.3 4.9 4.8 4.8 4.8 5.1 5.4 5.3 5.2 5.4 5.2 5.3 5.1 5.0 5.1 4.6 4.3 4.6 4.6 5.0 5.1 4.7 5.0 4.9
6.3 6.5 6.6 6.5 6.3 6.0 5.8 5.5 5.1 5.3 5.5 4.9 4.7 4.9 5.2 5.1 5.2 5.5 5.4 5.9 5.3 5.2 5.1 5.0 4.9 4.7 4.8 5.2 5.1 5.4 6.4 5.7 5.4 5.6 4.4 4.4 5.0 4.2 4.9 5.2 5.0 4.9 5.0 5.1 5.1
Wind_Speed
22 20 18 17 13 11 10 9 8 8 8 9 9 10 11 12 8 3 4 2 1 4 4 1 4 3 2 3 3 1 2 4 3 3 1 4 8 2 5 7 4 6 9 10 10
24 21 18 15 13 13 10 7 7 7 8 7 10 11 10 11 2 7 1 1 2 6 2 2 3 2 3 3 3 1 2 4 1 3 5 9 5 8 5 6 6 9 8 10 12
24 22 21 18 16 12 10 9 6 6 6 7 8 9 10 6 2 4 3 3 2 5 2 1 3 2 4 3 3 2 1 3 4 5 6 5 8 3 6 8 8 9 14 13 14
24 23 20 18 17 17 15 14 13 11 9 7 7 8 9 3 4 2 6 4 1 2 2 7 4 3 3 3 2 1 2 3 1 7 5 10 9 9 11 11 10 12 12 13 13
27 23 19 18 17 15 14 14 11 11 11 11 9 9 3 7 5 2 5 3 2 3 7 4 9 2 4 1 0 2 1 3 7 10 8 9 12 16 13 16 15 11 10 10 10
31 28 24 18 16 16 14 13 11 9 5 6 8 9 2 16 3 2 3 3 4 4 2 2 2 2 3 0 2 3 5 9 8 9 5 6 6 3 6 6 9 9 8 11 10
33 30 28 23 21 18 13 11 8 4 3 3 3 1 7 5 2 3 1 0 1 1 1 2 2 3 3 2 2 3 6 6 3 4 4 1 11 8 10 13 14 12 14 13 13
33 32 29 26 22 20 19 13 6 6 2 0 2 1 5 1 0 1 2 3 2 2 2 3 2 2 1 1 2 3 2 6 4 9 5 4 14 8 8 13 17 17 16 15 15
32 31 28 25 21 19 14 9 10 9 5 1 0 3 4 3 4 4 2 2 2 1 1 0 2 3 1 5 3 3 9 14 9 9 7 11 21 14 15 19 16 16 17 17 18
34 33 29 26 21 18 6 4 6 2 2 1 2 1 6 8 5 7 1 2 1 2 1 4 3 4 3 8 7 15 15 12 17 13 18 22 28 21 16 17 18 18 19 19 19
34 33 29 26 23 13 2 1 3 3 9 4 3 3 2 9 3 10 6 2 1 2 6 3 7 10 13 8 7 10 12 17 17 16 17 20 28 29 19 18 20 20 21 20 20
35 34 29 25 21 13 1 5 1 2 5 3 2 1 2 4 4 14 11 3 2 7 0 3 10 12 5 5 6 8 14 18 16 12 14 19 33 26 19 21 22 20 18 17 17
34 34 32 26 17 3 3 4 4 5 1 4 3 6 5 5 4 10 12 4 3 4 3 5 9 4 7 7 8 11 15 18 21 16 14 14 27 18 14 18 14 15 17 16 16
34 33 31 30 2 2 1 3 8 4 2 9 6 5 8 4 1 4 8 3 2 5 5 6 4 2 6 10 9 18 12 9 15 14 8 10 14 17 13 6 5 9 12 12 12
37 35 25 11 1 2 5 11 3 2 0 8 4 4 7 8 8 3 7 3 3 6 3 3 8 10 13 10 8 7 8 9 14 18 19 14 10 4 10 18 20 13 9 8 7
39 35 24 1 1 2 10 3 1 1 1 1 3 6 7 7 6 5 6 5 1 3 2 8 8 5 3 5 2 7 9 19 13 7 6 4 12 5 5 9 11 11 9 11 11
40 34 8 2 5 11 4 0 0 2 1 4 4 5 6 8 5 7 8 7 5 5 8 10 3 1 2 6 8 7 13 5 3 3 5 0 9 16 17 20 19 19 19 16 11
41 21 2 1 11 2 1 1 3 0 2 1 3 6 3 9 4 8 8 6 2 2 3 7 3 4 2 6 9 16 5 4 6 5 15 16 9 3 8 10 13 13 10 5 8
29 3 2 9 7 1 2 4 2 2 2 3 4 2 2 4 5 7 6 2 1 1 6 6 6 13 15 10 4 2 5 2 8 13 9 7 10 12 16 12 3 3 4 8 10
5 3 5 21 5 3 4 3 1 2 3 1 2 1 4 6 4 8 4 2 2 7 2 3 10 6 3 5 11 13 3 4 3 5 9 11 20 14 12 11 4 6 10 13 14
2 2 6 19 2 6 4 2 2 3 3 2 2 3 4 3 4 4 4 3 5 3 7 5 4 5 12 5 6 3 4 6 3 5 6 11 10 5 12 14 11 11 15 17 18
4 2 7 9 5 2 2 4 4 3 3 3 1 2 3 4 5 4 5 5 4 2 9 6 5 10 18 22 16 15 14 13 5 7 7 10 22 19 4 9 13 17 20 22 21
3 3 4 5 4 3 3 2 2 4 3 3 3 3 2 1 4 6 6 4 6 5 3 3 4 6 8 3 3 3 6 10 13 11 18 12 13 8 19 26 23 26 22 21 22
2 4 4 5 2 3 4 2 4 4 1 4 3 2 3 4 4 9 12 7 2 8 19 12 6 12 12 16 14 20 22 20 14 6 19 19 33 29 26 27 26 25 27 26 24
4 2 2 4 3 5 1 1 2 5 4 4 1 2 3 4 14 6 6 10 12 13 4 5 6 12 18 23 24 26 26 24 21 21 15 28 27 30 27 23 26 26 26 30 30
4 3 3 3 3 3 1 2 0 3 3 4 3 10 10 8 11 17 16 12 9 3 2 1 5 8 18 22 22 24 23 22 21 17 15 21 29 24 24 23 26 30 29 29 29
3 1 2 2 3 3 2 1 2 12 5 10 9 15 13 12 9 17 19 21 18 14 8 3 3 3 10 10 18 16 3 3 7 11 15 19 28 24 23 28 29 28 26 26 25
Wind_Direction
2 358 354 350 350 346 340 333 325 317 313 311 308 311 320 325 314 231 55 45 110 330 323 9 62 75 68 80 64 160 180 189 197 201 52 24 347 359 308 284 309 294 301 317 343
2 358 356 352 348 342 340 334 322 318 314 315 316 315 328 345 0 57 38 177 341 347 54 94 90 98 84 75 45 61 225 184 23 355 324 325 322 322 310 305 286 305 307 324 329
4 358 354 351 347 345 339 332 328 326 327 316 317 320 321 337 77 38 178 149 50 16 57 81 91 55 74 57 28 124 183 167 149 351 326 304 299 311 281 281 292 296 310 319 317
6 0 354 349 344 340 340 338 339 338 335 338 328 319 311 194 78 37 152 127 39 330 92 49 54 68 64 83 16 255 124 184 312 324 305 298 305 284 269 281 274 297 294 295 303
2 1 355 345 338 333 327 323 323 324 331 335 328 327 246 91 71 95 125 69 33 22 41 53 54 98 104 75 39 187 14 263 299 282 275 284 275 285 282 269 270 282 285 288 303
359 355 353 346 337 330 323 310 307 309 307 314 323 327 34 90 336 333 83 30 33 22 10 44 70 85 103 276 292 182 269 292 288 302 262 280 302 294 271 298 294 290 278 296 288
358 354 346 345 340 336 333 326 314 290 290 317 330 341 82 89 305 212 215 272 193 6 2 76 152 220 180 259 182 266 282 308 168 347 288 217 270 249 273 310 305 289 295 288 274
357 351 346 342 346 341 340 355 94 134 151 297 334 303 86 178 234 273 225 265 235 268 250 309 203 103 337 110 246 287 183 337 327 316 326 300 290 277 282 308 294 287 291 288 276
356 351 347 343 348 343 343 24 78 95 103 38 80 10 56 316 12 347 243 315 327 124 259 69 69 56 141 340 330 42 324 321 327 307 308 303 296 287 273 281 269 278 281 281 278
355 351 347 343 347 353 36 45 82 34 44 217 142 96 26 342 320 328 44 278 16 311 315 38 40 322 327 342 330 313 318 310 311 322 311 304 291 286 288 278 273 273 272 271 268
353 349 346 342 339 355 325 324 357 37 32 42 86 68 337 334 340 16 352 321 334 13 299 8 300 298 308 302 287 295 294 299 303 310 297 302 293 290 294 277 268 261 256 262 266
349 347 345 338 332 337 207 75 65 318 76 22 38 2 251 338 10 16 2 9 332 288 101 270 280 291 301 273 264 269 291 298 303 319 308 302 289 299 294 273 266 265 260 256 266
347 345 341 336 326 18 28 87 346 163 110 39 34 28 355 337 48 12 4 324 267 267 284 275 289 286 268 270 268 275 285 299 301 314 295 305 291 299 310 279 276 263 253 261 258
344 344 341 332 106 339 77 345 322 211 91 359 358 28 349 2 142 353 12 326 272 309 329 288 340 337 296 286 286 289 303 296 300 320 306 4 291 326 313 306 259 265 250 262 271
341 342 344 360 339 26 339 330 159 209 162 354 10 339 355 39 308 19 11 4 332 319 291 293 310 309 302 299 300 294 327 304 294 285 295 276 257 312 287 290 295 306 303 258 284
338 339 340 97 11 353 331 314 272 171 74 28 346 358 0 352 6 311 2 360 311 330 316 290 309 278 263 310 321 329 321 300 290 281 257 298 228 283 300 305 298 303 291 300 305
335 331 330 304 324 322 324 165 214 56 330 1 347 349 345 336 341 357 350 19 24 356 356 322 311 308 6 320 317 333 335 306 274 219 271 198 289 263 285 284 288 299 306 324 325
331 325 213 225 323 278 118 106 82 252 310 323 326 324 331 358 338 334 339 354 44 24 322 345 316 9 78 326 292 303 262 272 290 292 299 304 255 254 268 291 300 312 310 24 27
330 337 22 348 351 199 105 63 97 189 315 301 321 341 326 339 329 334 327 291 267 225 12 322 263 302 301 297 210 84 229 335 279 269 280 238 258 264 264 279 294 352 3 347 339
334 331 14 341 360 67 72 109 134 248 344 250 304 258 315 332 330 336 316 208 250 215 223 312 296 300 340 290 263 238 349 261 224 292 294 279 290 285 290 297 292 315 322 322 318
1 37 346 347 44 53 75 56 316 308 302 215 251 287 261 324 307 300 266 250 219 231 222 303 254 274 316 233 272 197 233 226 294 262 278 295 290 328 296 310 315 318 320 318 310
344 47 344 337 49 35 65 330 320 330 1 351 302 251 283 346 289 277 253 235 184 288 293 275 288 284 282 282 273 253 259 251 248 251 236 273 279 282 289 325 313 309 303 299 300
15 309 337 344 69 38 336 320 291 344 342 5 323 59 24 323 317 250 260 286 309 275 302 345 248 302 300 173 109 216 209 235 259 270 264 273 268 289 300 309 313 312 311 306 300
358 359 6 40 39 63 3 356 323 336 270 347 284 103 355 316 271 284 274 293 11 288 293 278 210 230 254 278 302 283 276 275 266 260 285 267 288 295 305 309 313 309 305 303 298
16 60 28 347 12 340 272 286 304 354 344 329 218 134 27 275 308 265 255 293 295 288 244 222 253 247 257 270 276 274 278 281 275 270 272 289 289 297 305 318 308 305 301 301 299
12 3 1 302 299 285 224 217 200 360 291 286 257 324 306 262 248 283 290 298 273 291 261 160 271 268 271 275 272 274 270 272 273 280 281 284 287 300 319 310 306 308 307 304 301
27 71 321 337 321 287 210 147 196 334 260 250 316 312 299 289 287 274 271 271 258 260 266 245 253 271 282 308 303 279 231 202 292 275 278 285 295 312 309 312 310 308 303 296 292